Weather History for Elizabethtown, NC

Change the Weather History Date:

Wednesday, March 27, 2013

  Actual Average (KILM) Record (KILM)
Temperature  
Mean Temperature 44 °F 58 °F  
Max Temperature 55 °F 69 °F 85 °F (2007)
Min Temperature 33 °F 47 °F 24 °F (1955)
Degree Days  
Heating Degree Days 21 8  
Month to date heating degree days 293  
Since 1 July heating degree days 2222  
Cooling Degree Days 0 1  
Month to date cooling degree days 12  
Year to date cooling degree days 17  
Moisture  
Dew Point 24 °F    
Average Humidity 47    
Maximum Humidity 74    
Minimum Humidity 27    
Precipitation  
Precipitation 0.00 in 0.14 in 4.75 in (1882)
Month to date precipitation 3.70  
Year to date precipitation 11.08  
Snow  
Snow 0.00 in 0.00 in - ()
Month to date snowfall 0.2  
Since 1 July snowfall 1.7  
Snow Depth -    
Sea Level Pressure  
Sea Level Pressure 30.17 in    
Wind  
Wind Speed 7 mph (NW)    
Max Wind Speed 18 mph    
Max Gust Speed 28 mph    
Visibility 10 miles    
Events      
T = Trace of Precipitation, MM = Missing Value Source: NWS Daily Summary

Daily Weather History Graph

Daily Weather History Graph

Search for Another Location

Airport:

Trip Planner

Search our weather history database for the weather conditions in past years. The results will help you decide how hot, cold, wet, or windy it might be!

Date:

Astronomy

Mar. 27, 2013 Rise Set
Actual Time 7:07 AM EDT 7:31 PM EDT
Civil Twilight 6:42 AM EDT 7:56 PM EDT
Nautical Twilight 6:13 AM EDT 8:26 PM EDT
Astronomical Twilight 5:43 AM EDT 8:56 PM EDT
Moon 8:09 PM EDT (3/27) 6:59 AM EDT (3/27)
Length of Visible Light 13h 14m
Length of Day
12h 23m
Full, 100% of the Moon is Illuminated
Mar 27
Full
Apr 3
Last Quarter
Apr 10
New
Apr 18
First Quarter
Apr 25
Full

Hourly Weather History & Observations

Time (EDT) Temp. Windchill Dew Point Humidity Pressure Visibility Wind Dir Wind Speed Gust Speed Precip Events Conditions
12:15 AM 43.0 °F 38.2 °F 27.7 °F 55% 30.12 in 10.0 mi WNW 8.1 mph - N/A   Scattered Clouds
12:35 AM 42.8 °F 38.0 °F 26.8 °F 53% 30.12 in 10.0 mi NW 8.1 mph - N/A   Clear
12:55 AM 42.1 °F 38.4 °F 26.6 °F 54% 30.13 in 10.0 mi WNW 5.8 mph - N/A   Clear
1:15 AM 41.5 °F 35.9 °F 26.6 °F 55% 30.14 in 10.0 mi WNW 9.2 mph - N/A   Clear
1:35 AM 41.5 °F 36.4 °F 26.4 °F 55% 30.14 in 10.0 mi NW 8.1 mph - N/A   Clear
1:55 AM 41.2 °F 36.0 °F 26.2 °F 55% 30.13 in 10.0 mi NW 8.1 mph - N/A   Clear
2:15 AM 40.5 °F 35.8 °F 26.2 °F 57% 30.13 in 10.0 mi NW 6.9 mph - N/A   Clear
2:35 AM 40.1 °F 34.7 °F 25.7 °F 56% 30.13 in 10.0 mi WNW 8.1 mph - N/A   Clear
3:15 AM 39.2 °F 34.2 °F 25.7 °F 58% 30.12 in 10.0 mi WNW 6.9 mph - N/A   Clear
3:35 AM 38.7 °F - 25.5 °F 59% 30.12 in 10.0 mi Calm Calm - N/A   Clear
3:55 AM 37.9 °F - 26.1 °F 62% 30.13 in 10.0 mi Calm Calm - N/A   Clear
4:15 AM 37.4 °F - 25.7 °F 63% 30.13 in 10.0 mi Calm Calm - N/A   Clear
4:35 AM 36.7 °F - 25.7 °F 64% 30.14 in 10.0 mi Calm Calm - N/A   Clear
4:55 AM 35.8 °F - 26.2 °F 68% 30.14 in 10.0 mi Calm Calm - N/A   Clear
5:15 AM 34.7 °F - 26.2 °F 71% 30.14 in 10.0 mi Calm Calm - N/A   Clear
5:35 AM 34.7 °F - 26.4 °F 72% 30.14 in 10.0 mi Calm Calm - N/A   Clear
5:55 AM 34.2 °F - 26.4 °F 73% 30.15 in 10.0 mi Calm Calm - N/A   Clear
6:15 AM 34.0 °F 31.0 °F 26.4 °F 74% 30.16 in 10.0 mi WNW 3.5 mph - N/A   Clear
6:35 AM 33.6 °F 29.4 °F 26.2 °F 74% 30.16 in 10.0 mi West 4.6 mph - N/A   Clear
7:15 AM 33.8 °F 29.6 °F 26.1 °F 73% 30.17 in 10.0 mi WNW 4.6 mph - N/A   Clear
7:35 AM 34.0 °F 29.8 °F 26.1 °F 73% 30.19 in 10.0 mi WNW 4.6 mph - N/A   Clear
7:55 AM 34.7 °F 29.6 °F 26.2 °F 71% 30.20 in 10.0 mi WNW 5.8 mph - N/A   Clear
8:15 AM 35.8 °F 29.4 °F 26.4 °F 69% 30.20 in 10.0 mi WNW 8.1 mph - N/A   Clear
8:35 AM 37.4 °F 31.4 °F 26.4 °F 65% 30.20 in 10.0 mi WNW 8.1 mph - N/A   Clear
8:55 AM 39.0 °F 34.8 °F 26.4 °F 61% 30.21 in 10.0 mi WNW 5.8 mph - N/A   Clear
9:15 AM 40.5 °F 34.6 °F 26.6 °F 58% 30.22 in 10.0 mi NW 9.2 mph - N/A   Clear
9:35 AM 42.3 °F 35.1 °F 26.6 °F 54% 30.22 in 10.0 mi NW 13.8 mph 18.4 mph N/A   Clear
9:55 AM 43.9 °F 37.5 °F 26.8 °F 51% 30.22 in 10.0 mi NW 12.7 mph 18.4 mph N/A   Clear
10:15 AM 45.0 °F 40.6 °F 26.2 °F 48% 30.22 in 10.0 mi NNW 8.1 mph 20.7 mph N/A   Clear
10:35 AM 46.4 °F 41.1 °F 24.8 °F 43% 30.22 in 10.0 mi NW 11.5 mph 16.1 mph N/A   Clear
10:55 AM 46.9 °F - 22.6 °F 38% 30.22 in 10.0 mi NNW 6.9 mph 20.7 mph N/A   Clear
11:15 AM 47.5 °F - 22.5 °F 37% 30.21 in 10.0 mi NNW 4.6 mph 18.4 mph N/A   Clear
11:35 AM 48.6 °F - 22.3 °F 36% 30.21 in 10.0 mi NW 13.8 mph 18.4 mph N/A   Clear
11:55 AM 49.3 °F - 22.1 °F 34% 30.21 in 10.0 mi WNW 10.4 mph - N/A   Clear
12:15 PM 49.5 °F - 21.2 °F 33% 30.20 in 10.0 mi West 11.5 mph 17.3 mph N/A   Clear
12:35 PM 49.8 °F - 20.3 °F 31% 30.20 in 10.0 mi NW 11.5 mph - N/A   Clear
1:15 PM 51.6 °F - 20.8 °F 30% 30.19 in 10.0 mi West 11.5 mph 20.7 mph N/A   Clear
1:35 PM 52.2 °F - 21.4 °F 30% 30.19 in 10.0 mi West 12.7 mph 25.3 mph N/A   Clear
1:55 PM 52.7 °F - 21.0 °F 29% 30.18 in 10.0 mi West 12.7 mph 27.6 mph N/A   Clear
2:15 PM 53.1 °F - 21.0 °F 29% 30.17 in 10.0 mi WNW 15.0 mph 24.2 mph N/A   Clear
2:35 PM 53.6 °F - 21.2 °F 28% 30.16 in 10.0 mi WNW 12.7 mph 23.0 mph N/A   Clear
2:55 PM 54.1 °F - 21.9 °F 29% 30.16 in 10.0 mi West 12.7 mph 17.3 mph N/A   Clear
3:15 PM 54.1 °F - 21.9 °F 29% 30.15 in 10.0 mi WNW 13.8 mph 23.0 mph N/A   Clear
3:35 PM 54.9 °F - 22.3 °F 28% 30.14 in 10.0 mi WNW 12.7 mph 23.0 mph N/A   Clear
3:55 PM 54.5 °F - 21.7 °F 28% 30.13 in 10.0 mi NW 15.0 mph 19.6 mph N/A   Clear
4:15 PM 54.7 °F - 21.6 °F 28% 30.13 in 10.0 mi NW 18.4 mph 24.2 mph N/A   Clear
4:35 PM 55.4 °F - 21.9 °F 27% 30.14 in 10.0 mi WNW 10.4 mph 23.0 mph N/A   Clear
4:55 PM 55.0 °F - 21.9 °F 28% 30.13 in 10.0 mi NW 11.5 mph 20.7 mph N/A   Clear
5:15 PM 55.6 °F - 21.9 °F 27% 30.14 in 10.0 mi NW 10.4 mph 20.7 mph N/A   Clear
5:35 PM 55.2 °F - 22.3 °F 28% 30.14 in 10.0 mi WNW 13.8 mph 19.6 mph N/A   Clear
6:15 PM 54.5 °F - 21.0 °F 27% 30.14 in 10.0 mi NW 11.5 mph 17.3 mph N/A   Clear
6:35 PM 54.0 °F - 21.9 °F 29% 30.15 in 10.0 mi NNW 5.8 mph 18.4 mph N/A   Clear
7:15 PM 52.2 °F - 22.5 °F 31% 30.15 in 10.0 mi NNW 6.9 mph - N/A   Clear
7:35 PM 50.9 °F - 22.1 °F 32% 30.16 in 10.0 mi NW 9.2 mph - N/A   Clear
7:55 PM 49.3 °F - 22.1 °F 34% 30.17 in 10.0 mi NNW 6.9 mph - N/A   Clear
8:15 PM 48.6 °F - 22.3 °F 36% 30.18 in 10.0 mi NW 3.5 mph - N/A   Clear
8:35 PM 47.3 °F - 22.5 °F 38% 30.19 in 10.0 mi NW 5.8 mph - N/A   Clear
9:15 PM 45.5 °F - 23.0 °F 41% 30.20 in 10.0 mi Calm Calm - N/A   Clear
9:35 PM 44.4 °F 42.9 °F 23.5 °F 44% 30.22 in 10.0 mi NNW 3.5 mph - N/A   Clear
9:55 PM 44.1 °F 42.5 °F 23.5 °F 44% 30.22 in 10.0 mi NNW 3.5 mph - N/A   Clear
10:15 PM 43.9 °F - 23.7 °F 45% 30.22 in 10.0 mi Calm Calm - N/A   Clear
10:35 PM 42.3 °F - 23.7 °F 48% 30.22 in 10.0 mi Calm Calm - N/A   Clear
10:55 PM 42.4 °F 40.7 °F 23.4 °F 47% 30.22 in 10.0 mi North 3.5 mph - N/A   Clear
11:15 PM 41.7 °F - 23.5 °F 49% 30.22 in 10.0 mi Calm Calm - N/A   Clear
11:35 PM 41.0 °F - 23.5 °F 50% 30.23 in 10.0 mi Calm Calm - N/A   Clear
11:55 PM 40.6 °F - 23.2 °F 50% 30.23 in 10.0 mi Calm Calm - N/A   Clear